This is the latest recevied weather packets stored in our database for station/object PY2XH-13. If no packets are shown the sender has not sent any weather packets the latest 10 day(s).
| Time | Temp. | Humidity | Pressure | Rain* | Wind** | Luminosity | Snow |
|---|---|---|---|---|---|---|---|
| 1777562164 | 24.44° C | 62% | 1031.4 hPa | - | - | - | - |
| 1777560364 | 23.89° C | 64% | 1031.8 hPa | - | - | - | - |
| 1777558564 | 23.89° C | 65% | 1032.2 hPa | - | - | - | - |
| 1777556765 | 23.33° C | 65% | 1032.6 hPa | - | - | - | - |
| 1777554965 | 23.33° C | 66% | 1032.9 hPa | - | - | - | - |
| 1777553164 | 23.33° C | 66% | 1032.9 hPa | - | - | - | - |
| 1777551365 | 23.33° C | 66% | 1032.8 hPa | - | - | - | - |
| 1777549564 | 23.33° C | 66% | 1032.6 hPa | - | - | - | - |
| 1777547765 | 23.33° C | 65% | 1032 hPa | - | - | - | - |
| 1777545965 | 23.33° C | 65% | 1031.6 hPa | - | - | - | - |
| 1777544164 | 23.33° C | 66% | 1031.2 hPa | - | - | - | - |
| 1777542365 | 23.33° C | 65% | 1030.8 hPa | - | - | - | - |
| 1777540564 | 23.33° C | 65% | 1030.6 hPa | - | - | - | - |
| 1777538764 | 23.33° C | 64% | 1030.1 hPa | - | - | - | - |
| 1777536965 | 23.33° C | 64% | 1030.2 hPa | - | - | - | - |
| 1777535165 | 23.33° C | 64% | 1030.5 hPa | - | - | - | - |
| 1777533364 | 22.78° C | 65% | 1031 hPa | - | - | - | - |
| 1777531564 | 23.33° C | 64% | 1031.8 hPa | - | - | - | - |
| 1777529764 | 23.33° C | 64% | 1032.8 hPa | - | - | - | - |
| 1777527964 | 23.33° C | 64% | 1033.1 hPa | - | - | - | - |
| 1777526164 | 23.33° C | 64% | 1033.1 hPa | - | - | - | - |
| 1777524365 | 23.33° C | 65% | 1032.7 hPa | - | - | - | - |
| 1777522564 | 23.89° C | 65% | 1032.6 hPa | - | - | - | - |
| 1777520764 | 23.33° C | 65% | 1032.9 hPa | - | - | - | - |
| 1777518964 | 23.89° C | 64% | 1032.7 hPa | - | - | - | - |
* Rain since midnight (hover to see other rain measurements)
** Current wind speed in m/s (hover to see current wind gust speed)